World > North America > United States > New Hampshire

Littleton, New Hampshire Regional Weather

Lat: 44.31N, Lon: 71.77W
Wx Zone: NHZ003
Warning NWS WEATHER ALERT - (More Info. Click Here) Warning
Feedback

Littleton, NH Regional Weather

Expires:201910171700;;850333
ASUS41 KBOX 171610
RWRBOX

REGIONAL WEATHER ROUNDUP
NATIONAL WEATHER SERVICE BOSTON/NORTON MA
1200 PM EDT THU OCT 17 2019

NOTE:  "FAIR" INDICATES FEW OR NO CLOUDS BELOW 12,000 FEET WITH NO 
SIGNIFICANT WEATHER AND/OR OBSTRUCTIONS TO VISIBILITY.


MEZ002-015-021-024-NHZ003-005-008-011-012-014-VTZ005-008-171700-
NORTHERN NEW ENGLAND
  
CITY           SKY/WX    TMP DP  RH WIND       PRES   REMARKS
PORTLAND ME    CLOUDY    52  42  69 S12       28.89R                  
BANGOR ME      LGT RAIN  54  51  90 S20G30    29.00R FOG              
CONCORD NH     LGT RAIN  45  41  86 SW21G33   28.85R                  
MANCHESTER NH  LGT RAIN  48  42  80 SW17G28   28.90R                  
NASHUA NH      LGT RAIN  49  44  83 SW12G18   28.95R                  
PORTSMOUTH NH  CLOUDY    52  40  64 SW28G37   28.88R                  
JAFFREY NH     LGT RAIN  45  41  86 SW12G26   28.96R                  
KEENE NH       LGT RAIN  46  42  86 SW8G16    28.98R                  
BURLINGTON VT  LGT RAIN  46  43  89 N24G33    29.02R FOG              
MT. WASHINGTON NOT AVBL                                               
$$


SKY/WX - Weather  TMP - Temperature  DP - Dew Point  RH - Relative Humidity
WIND - Wind Direction/Speed PRES - Barometric Pressure VSB - Visibility
WCI - Wind Chill Index E13G22 Wind - East Wind 13 mph/Gusts of 22 mph